User: anonymous   Login
Location: Pedholt
(56.0260°N, 10.2097°E)
Time: 18:04:24
(UTC+00:00)
Language:

Vanguard 2 - Orbit

View from above orbital plane
View from above orbital plane
View from above satellite
View from above satellite

Ground track
Ground track

The orbit data is extracted from the following two-line orbital elements,

1    11U 59001A   21209.54815682 -.00000056  00000-0 -27769-4 0  9998
2    11  32.8697 330.5809 1468111  24.2195 342.0860 11.85801690664932
Epoch (UTC): 28 July 2021 13:09:20
Eccentricity: 0.1468111
inclination: 32.8697°
perigee height: 552 km
apogee height: 2937 km
right ascension of ascending node: 330.5809°
argument of perigee: 24.2195°
revolutions per day: 11.85801690
mean anomaly at epoch: 342.0860°
orbit number at epoch: 66493

The dashed part of the orbit path shows where the satellite is in the earth's shadow,  

DLR